Regional Weather Roundup
Issued by NWS Charleston, WV

Home | Current Version | Previous Version | Text Only | Print | Product List | Glossary Off
Versions: 1 2 3 4 5 6 7 8 9 10 11 12 13 14 15 16 17 18 19 20 21 22 23 24 25 26 27 28

000
ASUS41 KRLX 131710
RWRRLX
West Virginia Regional Weather Roundup
National Weather Service Charleston WV
1200 PM EST WED DEC 13 2017

Note: "fair" indicates few or no clouds below 12,000 feet with no
significant weather and/or obstructions to visibility.

WVZ003-131800-
Northern Panhandle of West Virginia

CITY           SKY/WX    TMP DP  RH WIND       PRES   REMARKS
WHEELING       CLOUDY    23   9  55 SW13      29.78F
$$

WVZ009-131800-
Northwest West Virginia

CITY           SKY/WX    TMP DP  RH WIND       PRES   REMARKS
PARKERSBURG    CLOUDY    24  10  55 S10       29.86F
$$

WVZ006-131800-
Western West Virginia

CITY           SKY/WX    TMP DP  RH WIND       PRES   REMARKS
HUNTINGTON     SUNNY     29  10  45 S12G17    29.84F
$$

WVZ015-131800-
West Central West Virginia

CITY           SKY/WX    TMP DP  RH WIND       PRES   REMARKS
CHARLESTON     CLOUDY    28   7  41 S12       29.85F
$$

WVZ022-031-131800-
North Central West Virginia

CITY           SKY/WX    TMP DP  RH WIND       PRES   REMARKS
CLARKSBURG     CLOUDY    24   8  50 W13       29.82F
MORGANTOWN     PTSUNNY   23   8  52 SW10G17   29.80F
$$

WVZ025-035-042-045-131800-
Southern West Virginia

CITY           SKY/WX    TMP DP  RH WIND       PRES   REMARKS
BECKLEY        CLOUDY    22   4  46 W12       29.78F
LOGAN            N/A     28   5  37 CALM      29.82F
BLUEFIELD      MOSUNNY   22   4  46 W15G21    29.77F WCI   9
LEWISBURG      MOSUNNY   25  -1  32 W13G18    29.77F
$$

WVZ047-131800-
Northern Mountains of West Virginia

CITY           SKY/WX    TMP DP  RH WIND       PRES   REMARKS
ELKINS         SUNNY     20   4  50 SW12      29.77F WCI   8
$$

WVZ052-131800-
Eastern Panhandle of West Virginia

CITY           SKY/WX    TMP DP  RH WIND       PRES   REMARKS
MARTINSBURG    SUNNY     27   3  35 W15G26    29.78F
PETERSBURG     SUNNY     27   8  44 E5        29.78F
$$




USA.gov is the U.S. government's official web portal to all federal, state and local government web resources and services.